EN

Hourly Weather Bushneva

Today, 16 April, Friday

Time Temperature Precipitation Wind Pressure Humidity
00:00 +10°C° 0.2 mm 3 mps 743 mmHg 90%
01:00 +9°C° 0.2 mm 3 mps 743 mmHg 89%
02:00 +9°C° 0.2 mm 3 mps 743 mmHg 89%
03:00 +8°C° 0 mm 3 mps 744 mmHg 89%
04:00 +8°C° 0 mm 3 mps 744 mmHg 90%
05:00 +7°C° 0 mm 3 mps 744 mmHg 91%
06:00 +9°C° 0 mm 3 mps 745 mmHg 85%
07:00 +10°C° 0 mm 3 mps 745 mmHg 79%
08:00 +11°C° 0 mm 3 mps 745 mmHg 73%
09:00 +12°C° 0 mm 4 mps 745 mmHg 68%
10:00 +13°C° 0 mm 4 mps 745 mmHg 63%
11:00 +14°C° 0 mm 5 mps 745 mmHg 59%
12:00 +15°C° 0.5 mm 5 mps 745 mmHg 56%
13:00 +15°C° 0.5 mm 5 mps 745 mmHg 54%
14:00 +15°C° 0.5 mm 5 mps 745 mmHg 51%
15:00 +15°C° 0.3 mm 5 mps 745 mmHg 54%
16:00 +14°C° 0.3 mm 4 mps 745 mmHg 57%
17:00 +14°C° 0.3 mm 3 mps 745 mmHg 60%
18:00 +12°C° 0 mm 3 mps 745 mmHg 65%
19:00 +12°C° 0 mm 2 mps 746 mmHg 70%
20:00 +11°C° 0 mm 1 mps 746 mmHg 74%
21:00 +10°C° 0 mm 1 mps 746 mmHg 74%
22:00 +10°C° 0 mm 1 mps 746 mmHg 74%
23:00 +10°C° 0 mm 1 mps 746 mmHg 74%

Tomorrow, 17 April, Saturday

Time Temperature Precipitation Wind Pressure Humidity
00:00 +10°C° 0 mm 1 mps 747 mmHg 76%
01:00 +9°C° 0 mm 1 mps 747 mmHg 79%
02:00 +9°C° 0 mm 1 mps 747 mmHg 81%
03:00 +9°C° 0 mm 1 mps 747 mmHg 82%
04:00 +9°C° 0 mm 1 mps 747 mmHg 83%
05:00 +9°C° 0 mm 1 mps 747 mmHg 84%
06:00 +8°C° 0.1 mm 2 mps 747 mmHg 84%
07:00 +9°C° 0.1 mm 2 mps 747 mmHg 84%
08:00 +9°C° 0.1 mm 2 mps 747 mmHg 85%
09:00 +9°C° 1.3 mm 3 mps 747 mmHg 88%
10:00 +8°C° 1.3 mm 4 mps 747 mmHg 91%
11:00 +8°C° 1.3 mm 5 mps 747 mmHg 94%
12:00 +7°C° 1.3 mm 4 mps 747 mmHg 94%
13:00 +8°C° 1.3 mm 3 mps 747 mmHg 93%
14:00 +8°C° 1.3 mm 3 mps 747 mmHg 93%
15:00 +8°C° 2 mm 2 mps 747 mmHg 93%
16:00 +7°C° 2 mm 2 mps 747 mmHg 94%
17:00 +7°C° 2 mm 2 mps 746 mmHg 94%
18:00 +8°C° 0.4 mm 1 mps 746 mmHg 95%
19:00 +8°C° 0.4 mm 1 mps 746 mmHg 95%
20:00 +8°C° 0.4 mm 1 mps 746 mmHg 96%
21:00 +8°C° 0.2 mm 1 mps 746 mmHg 96%
22:00 +8°C° 0.2 mm 1 mps 746 mmHg 96%
23:00 +8°C° 0.2 mm 1 mps 746 mmHg 96%

Day after tomorrow, 18 April, Sunday

Time Temperature Precipitation Wind Pressure Humidity
00:00 +7°C° 1.5 mm 2 mps 746 mmHg 95%
01:00 +7°C° 1.5 mm 2 mps 746 mmHg 94%
02:00 +7°C° 1.5 mm 3 mps 746 mmHg 93%
03:00 +6°C° 0.3 mm 4 mps 745 mmHg 89%
04:00 +5°C° 0.3 mm 4 mps 745 mmHg 85%
05:00 +5°C° 0.3 mm 5 mps 745 mmHg 81%
06:00 +5°C° 0.1 mm 5 mps 745 mmHg 84%
07:00 +4°C° 0.1 mm 6 mps 744 mmHg 86%
08:00 +4°C° 0.1 mm 6 mps 744 mmHg 89%
09:00 +4°C° 0.3 mm 6 mps 745 mmHg 89%
10:00 +4°C° 0.3 mm 7 mps 745 mmHg 90%
11:00 +4°C° 0.3 mm 7 mps 746 mmHg 90%
12:00 +5°C° 0.1 mm 6 mps 746 mmHg 83%
13:00 +7°C° 0.1 mm 6 mps 747 mmHg 77%
14:00 +8°C° 0.1 mm 5 mps 747 mmHg 70%
15:00 +8°C° 0.2 mm 5 mps 747 mmHg 73%
16:00 +8°C° 0.2 mm 4 mps 748 mmHg 75%
17:00 +8°C° 0.2 mm 4 mps 748 mmHg 77%
18:00 +7°C° 0.1 mm 4 mps 748 mmHg 81%
19:00 +6°C° 0.1 mm 4 mps 748 mmHg 85%
20:00 +5°C° 0.1 mm 5 mps 748 mmHg 90%
21:00 +5°C° 0 mm 4 mps 748 mmHg 90%
22:00 +5°C° 0 mm 4 mps 748 mmHg 90%
23:00 +5°C° 0 mm 4 mps 748 mmHg 90%

19 April, Monday

Time Temperature Precipitation Wind Pressure Humidity
00:00 +5°C° 0 mm 4 mps 748 mmHg 90%
01:00 +4°C° 0 mm 4 mps 748 mmHg 90%
02:00 +4°C° 0 mm 4 mps 748 mmHg 90%
03:00 +4°C° 0.1 mm 4 mps 748 mmHg 91%
04:00 +4°C° 0.1 mm 4 mps 748 mmHg 92%
05:00 +4°C° 0.1 mm 4 mps 748 mmHg 94%
06:00 +5°C° 0.1 mm 5 mps 748 mmHg 92%
07:00 +5°C° 0.1 mm 5 mps 748 mmHg 91%
08:00 +5°C° 0.1 mm 5 mps 749 mmHg 89%
09:00 +6°C° 0.1 mm 5 mps 749 mmHg 88%
10:00 +6°C° 0.1 mm 5 mps 749 mmHg 86%
11:00 +6°C° 0.1 mm 5 mps 749 mmHg 85%
12:00 +7°C° 0.1 mm 5 mps 749 mmHg 84%
13:00 +7°C° 0.1 mm 6 mps 749 mmHg 82%
14:00 +7°C° 0.1 mm 6 mps 749 mmHg 81%
15:00 +7°C° 0.1 mm 6 mps 749 mmHg 83%
16:00 +5°C° 0.1 mm 6 mps 749 mmHg 85%
17:00 +5°C° 0.1 mm 6 mps 749 mmHg 88%
18:00 +4°C° 0 mm 6 mps 749 mmHg 88%
19:00 +4°C° 0 mm 6 mps 749 mmHg 88%
20:00 +4°C° 0 mm 6 mps 749 mmHg 89%
21:00 +4°C° 0 mm 6 mps 748 mmHg 89%
22:00 +4°C° 0 mm 6 mps 748 mmHg 90%
23:00 +4°C° 0 mm 6 mps 748 mmHg 90%

20 April, Tuesday

Time Temperature Precipitation Wind Pressure Humidity
00:00 +4°C° 0.1 mm 6 mps 747 mmHg 90%
01:00 +4°C° 0.1 mm 6 mps 747 mmHg 90%
02:00 +3°C° 0.1 mm 7 mps 747 mmHg 90%
03:00 +3°C° 0 mm 7 mps 746 mmHg 89%
04:00 +3°C° 0 mm 7 mps 746 mmHg 87%
05:00 +2°C° 0 mm 8 mps 745 mmHg 86%
06:00 +2°C° 0 mm 8 mps 745 mmHg 87%
07:00 +1°C° 0 mm 8 mps 744 mmHg 88%
08:00 +1°C° 0 mm 8 mps 744 mmHg 90%
09:00 +1°C° 0.2 mm 9 mps 743 mmHg 89%
10:00 +1°C° 0.2 mm 9 mps 742 mmHg 88%
11:00 +1°C° 0.2 mm 10 mps 741 mmHg 88%
12:00 +1°C° 2.7 mm 10 mps 740 mmHg 91%
13:00 0°C° 2.7 mm 10 mps 739 mmHg 94%
14:00 -2°C° 2.7 mm 10 mps 738 mmHg 97%
15:00 0°C° 2.7 mm 10 mps 737 mmHg 96%
16:00 0°C° 2.7 mm 10 mps 736 mmHg 95%
17:00 +1°C° 2.7 mm 10 mps 735 mmHg 95%
18:00 +2°C° 0.2 mm 10 mps 735 mmHg 95%
19:00 +3°C° 0.2 mm 9 mps 735 mmHg 95%
20:00 +4°C° 0.2 mm 8 mps 736 mmHg 95%
21:00 +5°C° 0.3 mm 8 mps 735 mmHg 95%
22:00 +5°C° 0.3 mm 8 mps 735 mmHg 96%
23:00 +5°C° 0.3 mm 7 mps 735 mmHg 96%

21 April, Wednesday

Time Temperature Precipitation Wind Pressure Humidity
00:00 +6°C° 0.1 mm 7 mps 735 mmHg 94%
01:00 +6°C° 0.1 mm 7 mps 734 mmHg 92%
02:00 +6°C° 0.1 mm 7 mps 734 mmHg 89%
03:00 +6°C° 0.2 mm 7 mps 734 mmHg 89%
04:00 +5°C° 0.2 mm 6 mps 734 mmHg 89%
05:00 +5°C° 0.2 mm 6 mps 734 mmHg 89%
06:00 +5°C° 0.4 mm 7 mps 734 mmHg 90%
07:00 +5°C° 0.4 mm 7 mps 733 mmHg 90%
08:00 +5°C° 0.4 mm 7 mps 733 mmHg 91%
09:00 +5°C° 0.6 mm 8 mps 734 mmHg 90%
10:00 +5°C° 0.6 mm 8 mps 734 mmHg 90%
11:00 +5°C° 0.6 mm 8 mps 734 mmHg 89%
12:00 +4°C° 0.1 mm 8 mps 735 mmHg 91%
13:00 +3°C° 0.1 mm 7 mps 735 mmHg 93%
14:00 +2°C° 0.1 mm 7 mps 736 mmHg 95%
15:00 +2°C° 0.3 mm 7 mps 736 mmHg 96%
16:00 0°C° 0.3 mm 7 mps 737 mmHg 96%
17:00 0°C° 0.3 mm 7 mps 737 mmHg 96%
18:00 0°C° 0.2 mm 7 mps 738 mmHg 96%
19:00 0°C° 0.2 mm 7 mps 739 mmHg 96%
20:00 +2°C° 0.2 mm 7 mps 739 mmHg 96%
21:00 +2°C° 0.1 mm 6 mps 740 mmHg 96%
22:00 +2°C° 0.1 mm 6 mps 740 mmHg 96%
23:00 +2°C° 0.1 mm 6 mps 741 mmHg 96%
Show more

We Need Your Consent

Meteoprog and our Service Providers may store and access personal data such as cookies, device identifiers or other similar technologies on your device and process such data to personalise content and ads, as well as provide social media features and to analyse the traffic.

  • Store and/or access information on your device

    Cookies, device identifiers or other information can be stored or accessed on your device for the purposes indicated above.

  • Personalised ads and content, ad and content measurement, audience insights, and products development

    Ads and content can be personalised based on a profile. More data can be added to better personalise ads and content. Ad and content performance can be measured. Insights about the audience who saw the ads and content can be derived. Such data can be used to develop or improve user’s experience, systems and software.

By clicking ‘I Agree’ you will allow the use of indicated cookies, device identifiers, web beacons or other similar technologies. Your settings can be changed in the browser on your device.

For certain purposes, legitimate interests may be relied on, rather than consent. You can read more about this in our Privacy and Cookie Policy.